Location: Altmatt
(47.1333°N, 8.7000°E)
Time: 17:24:17
(UTC+00:00)

EO 1 Del DPAF - Pass Details

Date: 13 July 2020
Orbit: 512 x 518 km, 98.0° (Epoch: 13 August)

Event Time Altitude Azimuth Distance (km) Brightness Sun altitude
Rises 22:13:02 0° 16° (NNE) 2,641 7.7 -19.0°
Reaches altitude 10° 22:15:09 10° 19° (NNE) 1,749 6.6 -19.1°
Maximum altitude 22:18:53 64° 102° (ESE) 574 3.2 -19.3°
Enters shadow 22:19:22 57° 143° (SE) 612 3.2 -19.3°
